Decatur, AL

7:52 AM CDT on May 25, 2017 (GMT -0500)
Pryor Regional

Weather History for KDCU - July, 2013

Change the Weather History Date:

Wednesday, July 10, 2013

  Actual Average Record
Temperature  
Mean Temperature 82 °F -  
Max Temperature 93 °F 90 °F 99 °F (1988)
Min Temperature 71 °F 68 °F 57 °F (1963)
Cooling Degree Days 18    
Growing Degree Days 32 (Base 50)    
Moisture  
Dew Point 72 °F    
Average Humidity 73    
Maximum Humidity 97    
Minimum Humidity 50    
Precipitation  
Precipitation 0.59 in - - ()
Sea Level Pressure  
Sea Level Pressure 30.00 in    
Wind  
Wind Speed 6 mph (WSW)    
Max Wind Speed 15 mph    
Max Gust Speed 21 mph    
Visibility 9 miles    
Events Rain , Thunderstorm    
Averages and records for this station are not official NWS values.
T = Trace of Precipitation, MM = Missing Value Source: NWS Daily Summary

Daily Weather History Graph

Daily Weather History Graph

Search for Another Location

Airport or City:

Trip Planner

Search our weather history database for the weather conditions in past years. The results will help you decide how hot, cold, wet, or windy it might be!

Date:

Astronomy

Jul. 10, 2013 Rise Set
Actual Time 5:43 AM CDT 8:03 PM CDT
Civil Twilight 5:14 AM CDT 8:32 PM CDT
Nautical Twilight 4:38 AM CDT 9:07 PM CDT
Astronomical Twilight 3:59 AM CDT 9:46 PM CDT
Moon 7:56 AM CDT (7/10) 9:21 PM CDT (7/10)
Length of Visible Light 15h 17m
Length of Day
14h 19m
Waxing Crescent, 5% of the Moon is Illuminated
Jul 10
Waxing Crescent
Jul 15
First Quarter
Jul 22
Full
Jul 29
Last Quarter
Aug 6
New

Hourly Weather History & Observations

Time (CDT) Temp. Heat Index Dew Point Humidity Pressure Visibility Wind Dir Wind Speed Gust Speed Precip Events Conditions
12:53 AM 73.9 °F - 71.1 °F 91% 30.06 in 10.0 mi SSE 4.6 mph - N/A   Clear
1:53 AM 73.0 °F - 71.1 °F 93% 30.06 in 10.0 mi Calm Calm - N/A   Clear
2:53 AM 73.0 °F - 71.1 °F 93% 30.06 in 9.0 mi Calm Calm - N/A   Clear
3:53 AM 72.0 °F - 71.1 °F 97% 30.06 in 9.0 mi SSE 3.5 mph - N/A   Clear
4:53 AM 72.0 °F - 71.1 °F 97% 30.06 in 7.0 mi Calm Calm - N/A   Clear
5:53 AM 72.0 °F - 71.1 °F 97% 30.06 in 6.0 mi Calm Calm - N/A   Clear
6:53 AM 75.0 °F - 73.0 °F 94% 30.05 in 7.0 mi North - - N/A   Clear
7:53 AM 80.1 °F 84.5 °F 73.9 °F 81% 30.07 in 10.0 mi North - - N/A   Clear
8:53 AM 82.9 °F 89.4 °F 73.9 °F 74% 30.07 in 10.0 mi West 8.1 mph - N/A   Clear
9:53 AM 86.0 °F 93.8 °F 73.9 °F 67% 30.07 in 10.0 mi WNW 10.4 mph - N/A   Clear
10:53 AM 88.0 °F 95.6 °F 73.0 °F 61% 30.06 in 10.0 mi West 10.4 mph - N/A   Clear
11:53 AM 91.0 °F 98.2 °F 72.0 °F 53% 30.03 in 10.0 mi WNW 8.1 mph - N/A   Clear
12:53 PM 91.0 °F 98.2 °F 72.0 °F 53% 30.02 in 10.0 mi WNW 10.4 mph - N/A   Clear
1:53 PM 93.0 °F 100.7 °F 72.0 °F 50% 29.99 in 10.0 mi West 10.4 mph - N/A   Partly Cloudy
2:53 PM 93.0 °F 100.7 °F 72.0 °F 50% 29.95 in 10.0 mi WNW 9.2 mph - N/A   Clear
3:53 PM 91.9 °F 100.7 °F 73.0 °F 54% 29.94 in 10.0 mi West 8.1 mph - N/A   Clear
4:53 PM 91.9 °F 99.5 °F 72.0 °F 52% 29.92 in 10.0 mi West 8.1 mph - N/A   Clear
5:05 PM 91.4 °F 98.4 °F 71.6 °F 52% 29.95 in 10.0 mi NW 6.9 mph - N/A Thunderstorm Clear
5:23 PM 91.4 °F 100.1 °F 73.4 °F 55% 29.94 in 10.0 mi WNW 5.8 mph - N/A   Clear
5:39 PM 91.4 °F 100.1 °F 73.4 °F 55% 29.93 in 10.0 mi WSW 4.6 mph - N/A Thunderstorm Clear
5:53 PM 91.0 °F 100.4 °F 73.9 °F 57% 29.92 in 10.0 mi South 9.2 mph - N/A   Clear
6:53 PM 87.1 °F 94.5 °F 73.0 °F 63% 29.93 in 10.0 mi South 11.5 mph - N/A   Clear
7:53 PM 82.9 °F 88.8 °F 73.0 °F 72% 29.93 in 10.0 mi South 5.8 mph - N/A   Scattered Clouds
8:53 PM 82.9 °F 89.4 °F 73.9 °F 74% 29.94 in 10.0 mi SW 4.6 mph - N/A   Clear
9:53 PM 81.0 °F 86.2 °F 73.9 °F 79% 29.95 in 10.0 mi WSW 8.1 mph - N/A   Clear
10:51 PM 78.8 °F - 73.4 °F 83% 30.00 in 10.0 mi East 12.7 mph 17.3 mph N/A Thunderstorm Mostly Cloudy
10:53 PM 78.1 °F - 72.0 °F 81% 29.99 in 10.0 mi East 15.0 mph 20.7 mph N/A Thunderstorm Mostly Cloudy
11:01 PM 75.2 °F - 68.0 °F 78% 30.00 in 10.0 mi East 10.4 mph 20.7 mph 0.00 in Rain , Thunderstorm Light Thunderstorms and Rain
11:22 PM 73.4 °F - 69.8 °F 88% 30.01 in 1.8 mi East 11.5 mph 19.6 mph 0.22 in Rain , Thunderstorm Heavy Thunderstorms and Rain
11:32 PM 71.6 °F - 69.8 °F 94% 30.00 in - Variable 4.6 mph - 0.59 in Thunderstorm Thunderstorm
11:44 PM - - - N/A% 30.00 in - North - - 0.59 in Thunderstorm Thunderstorm
11:53 PM - - - N/A% 30.01 in - North - - 0.59 in Thunderstorm Thunderstorm